Regional Weather Roundup
Issued by NWS

Home | Current Version | Previous Version | Text Only | Print | Product List | Glossary Off
Versions: 1 2 3 4 5 6 7 8 9 10 11 12 13 14 15 16 17 18 19 20 21 22 23 24 25 26 27 28 29 30 31 32 33 34 35 36 37 38 39 40 41 42 43 44 45 46 47 48 49 50

000
ASUS43 KOAX 210002
RWRNE

WEATHER ROUNDUP FOR NEBRASKA
NATIONAL WEATHER SERVICE OMAHA NE
700 PM CDT WED AUG 20 2014

NOTES: SATELLITE DATA IS BEING USED TO AUGMENT CLOUD COVER ABOVE
       12000 FEET.
       "FAIR" INDICATES FEW OR NO CLOUDS BELOW 12,000 FEET WITH NO
       SIGNIFICANT WEATHER AND/OR OBSTRUCTIONS TO VISIBILITY.

  * THESE STATIONS DO NOT REPORT WEATHER SUCH AS RAIN...SNOW OR FOG.

NEZ001>004-019>022-054>056-210100-
NEBRASKA PANHANDLE

CITY           SKY/WX    TMP DP  RH WIND       PRES   REMARKS
SCOTTSBLUFF    MOSUNNY   91  48  22 W10       29.81S
6HR MIN TEMP:  86; 6HR MAX TEMP:  93;

ALLIANCE       SUNNY     91  43  18 W16       29.80R
6HR MIN TEMP:  87; 6HR MAX TEMP:  94;

CHADRON        SUNNY     92  46  20 W16G23    29.73S
6HR MIN TEMP:  88; 6HR MAX TEMP:  95;

KIMBALL        LGT RAIN  71  60  70 SE10      29.90R
SIDNEY         CLOUDY    84  54  35 S10       29.87F
6HR MIN TEMP:  74; 6HR MAX TEMP:  94; 6HR PCP: TRACE;

$$

NEZ057>060-069>072-079>082-210100-
SOUTHWEST NEBRASKA

CITY           SKY/WX    TMP DP  RH WIND       PRES   REMARKS
NORTH PLATTE   SUNNY     88  67  49 NW7       29.73S HX  91
6HR MIN TEMP:  77; 6HR MAX TEMP:  91;

IMPERIAL       SUNNY     88  56  33 NW3       29.79R
6HR MIN TEMP:  80; 6HR MAX TEMP:  92;

LEXINGTON      MOSUNNY   88  70  54 SE10      29.73S HX  93
MCCOOK         PTSUNNY   91  61  36 SW6       29.73R HX  91
6HR MIN TEMP:  91; 6HR MAX TEMP:  98;

OGALLALA       MOSUNNY   88  58  35 SE5       29.79R
$$

NEZ005>010-023>029-035>040-094-210100-
NORTH CENTRAL NEBRASKA

CITY           SKY/WX    TMP DP  RH WIND       PRES   REMARKS
VALENTINE      SUNNY     89  64  43 SE15      29.70F HX  90
6HR MIN TEMP:  82; 6HR MAX TEMP:  92;

AINSWORTH      SUNNY     85  67  55 S9        29.74S
BROKEN BOW     SUNNY     90  70  51 SE15G22   29.73S HX  95
6HR MIN TEMP:  79; 6HR MAX TEMP:  93; 6HR PCP: TRACE;

O`NEILL        MOSUNNY   86  75  70 SE9       29.72F HX  95
ORD            SUNNY     88  71  57 SE12      29.71F HX  94
6HR MIN TEMP:  79; 6HR MAX TEMP:  90;

THEDFORD       SUNNY     90  63  40 S10       29.76S HX  90
$$

NEZ041-046>049-061>064-073>077-083>087-210100-
SOUTH CENTRAL NEBRASKA

CITY           SKY/WX    TMP DP  RH WIND       PRES   REMARKS
GRAND ISLAND   MOSUNNY   88  73  61 SE14      29.75S HX  95
6HR MIN TEMP:  84; 6HR MAX TEMP:  90;

AURORA         MOSUNNY   89  74  61 SE9       29.75S HX  97
HASTINGS       MOSUNNY   90  67  46 S10       29.74S HX  93
6HR MIN TEMP:  88; 6HR MAX TEMP:  92;

HEBRON         PTSUNNY   88  67  49 S9        29.75S HX  90
HOLDREGE       MOSUNNY   90  69  49 SE6       29.73F HX  94
KEARNEY *      MOSUNNY   88  73  62 SE10      29.74S HX  96
$$

NEZ011>018-030>034-042>045-210100-
NORTHEAST NEBRASKA

CITY           SKY/WX    TMP DP  RH WIND       PRES   REMARKS
NORFOLK        MOSUNNY   87  70  56 S12       29.75S HX  92
6HR MIN TEMP:  78; 6HR MAX TEMP:  90;

ALBION         MOSUNNY   86  72  62 S13       29.74F HX  92
BLAIR          MOSUNNY   87  73  63 SE14G20   29.77F HX  95
COLUMBUS *     SUNNY     88  72  58 S9        29.76S HX  94
FREMONT        SUNNY     89  73  58 SE14G21   29.76S HX  96
TEKAMAH        MOSUNNY   87  76  69 SE17G24   29.75F HX  97
6HR MIN TEMP:  77; 6HR MAX TEMP:  90;

WAYNE          PTSUNNY   83  76  80 SE12      29.75S HX  90
$$

NEZ050>053-065>068-078-088>093-210100-
SOUTHEAST NEBRASKA

CITY           SKY/WX    TMP DP  RH WIND       PRES   REMARKS
LINCOLN        MOSUNNY   91  68  46 S15       29.76S HX  95
6HR MIN TEMP:  91; 6HR MAX TEMP:  96;

OMAHA EPPLEY   MOSUNNY   88  73  61 SE21      29.77F HX  95
6HR MIN TEMP:  82; 6HR MAX TEMP:  91;

BEATRICE       SUNNY     91  70  50 S10       29.76F HX  96
FALLS CITY     MOSUNNY   88  77  69 SE10      29.78F HX 100
6HR MIN TEMP:  88; 6HR MAX TEMP:  94;

NEBRASKA CITY  SUNNY     85  73  66 SE12      29.79S HX  91
PLATTSMOUTH    SUNNY     88  72  60 SE12      29.78F HX  95
$$

NEZ044-045-051>053-067-210100-
OMAHA AREA

CITY           SKY/WX    TMP DP  RH WIND       PRES   REMARKS
OMAHA EPPLEY   MOSUNNY   88  73  61 SE21      29.77F HX  95
6HR MIN TEMP:  82; 6HR MAX TEMP:  91;

BLAIR          MOSUNNY   87  73  63 SE14G20   29.77F HX  95
FREMONT        SUNNY     89  73  58 SE14G21   29.76S HX  96
MILLARD        SUNNY     88  74  62 SE16      29.76S HX  97
OFFUTT AFB     SUNNY     87  78  75 SE14      29.77F HX  99
PLATTSMOUTH    SUNNY     88  72  60 SE12      29.78F HX  95
WAHOO          FAIR      89  68  48 SE10      29.76S HX  93
$$



USA.gov is the U.S. government's official web portal to all federal, state and local government web resources and services.